Elmira, NY

10:39 PM EST on December 08, 2019 (GMT -0500)
Elmira-Corning Regional

Weather History for KELM - October, 2019

Change the Weather History Date:

Sunday, October 13, 2019

  Actual Average Record
Temperature  
Mean Temperature 52 °F -  
Max Temperature 64 °F 61 °F 89 °F (1954)
Min Temperature 39 °F 39 °F 20 °F (1964)
Degree Days  
Heating Degree Days 14    
Growing Degree Days 2 (Base 50)    
Moisture  
Dew Point 40 °F    
Average Humidity 85    
Maximum Humidity 100    
Minimum Humidity 33    
Precipitation  
Precipitation 0.00 in - - ()
Sea Level Pressure  
Sea Level Pressure 30.06 in    
Wind  
Wind Speed 4 mph (WSW)    
Max Wind Speed 12 mph    
Max Gust Speed -    
Visibility 6 miles    
Events Fog    
Averages and records for this station are not official NWS values.
T = Trace of Precipitation, MM = Missing Value Source: NWS Daily Summary

Daily Weather History Graph

Daily Weather History Graph

Search for Another Location

Airport or City:

Astronomy

Oct. 13, 2019 Rise Set
Actual Time 7:17 AM EDT 6:29 PM EDT
Civil Twilight 6:49 AM EDT 6:57 PM EDT
Nautical Twilight 6:17 AM EDT 7:29 PM EDT
Astronomical Twilight 5:44 AM EDT 8:02 PM EDT
Moon 6:51 PM EDT (10/13) 6:48 AM EDT (10/13)
Length of Visible Light 12h 07m
Length of Day
11h 11m
Full, 100% of the Moon is Illuminated
Oct 13
Full
Oct 13
Full
Oct 21
Last Quarter
Oct 27
New
Nov 4
First Quarter

Hourly Weather History & Observations

Time (EDT) Temp. Windchill Dew Point Humidity Pressure Visibility Wind Dir Wind Speed Gust Speed Precip Events Conditions
12:08 AM 46.9 °F - 46.9 °F 100% 30.07 in 10.0 mi SW 6.9 mph - N/A   Mostly Cloudy
12:29 AM 46.9 °F - 46.9 °F 100% 30.07 in 10.0 mi SW 5.8 mph - N/A   Overcast
12:44 AM 46.0 °F 44.8 °F 46.0 °F 100% 30.07 in 9.0 mi West 3.5 mph - N/A   Mostly Cloudy
12:53 AM 46.0 °F 44.8 °F 45.0 °F 96% 30.08 in 5.0 mi West 3.5 mph - N/A   Scattered Clouds
12:59 AM 45.0 °F 43.5 °F 45.0 °F 100% 30.07 in 1.8 mi West 3.5 mph - N/A   Partly Cloudy
1:12 AM 43.0 °F - 43.0 °F 100% 30.07 in 0.8 mi Calm Calm - N/A   Clear
1:20 AM 43.0 °F 41.3 °F 43.0 °F 100% 30.07 in 0.5 mi West 3.5 mph - N/A Fog Fog
1:33 AM 43.0 °F 41.3 °F 43.0 °F 100% 30.07 in 0.2 mi West 3.5 mph - N/A Fog Fog
1:53 AM 42.1 °F 38.4 °F 42.1 °F 100% 30.08 in 0.2 mi SSW 5.8 mph - N/A Fog Fog
2:53 AM 42.1 °F 40.2 °F 41.0 °F 96% 30.08 in 0.2 mi WNW 3.5 mph - N/A Fog Fog
3:03 AM 41.0 °F 39.0 °F 41.0 °F 100% 30.07 in 0.2 mi NW 3.5 mph - N/A Fog Fog
3:53 AM 42.1 °F - 42.1 °F 100% 30.09 in 0.2 mi Calm Calm - N/A Fog Fog
4:33 AM 42.1 °F 40.2 °F 42.1 °F 100% 30.08 in 0.5 mi WNW 3.5 mph - N/A Fog Fog
4:48 AM 41.0 °F 38.0 °F 41.0 °F 100% 30.09 in 0.5 mi West 4.6 mph - N/A Fog Fog
4:53 AM 41.0 °F 39.0 °F 41.0 °F 100% 30.10 in 0.8 mi West 3.5 mph - N/A   Mist
5:26 AM 41.0 °F 38.0 °F 39.9 °F 96% 30.09 in 1.2 mi NW 4.6 mph - N/A   Overcast
5:45 AM 39.9 °F 37.8 °F 39.9 °F 100% 30.09 in 3.0 mi NNW 3.5 mph - N/A   Overcast
5:53 AM 39.9 °F - 39.9 °F 100% 30.11 in 5.0 mi Calm Calm - N/A   Overcast
6:53 AM 39.9 °F - 39.9 °F 100% 30.12 in 8.0 mi Calm Calm - N/A   Overcast
7:53 AM 39.9 °F - 39.9 °F 100% 30.13 in 6.0 mi Calm Calm - N/A   Overcast
8:12 AM 39.0 °F - 39.0 °F 100% 30.11 in 1.8 mi Calm Calm - N/A   Overcast
8:23 AM 39.9 °F - 39.0 °F 97% 30.10 in 3.0 mi Calm Calm - N/A   Overcast
8:33 AM 39.9 °F - 39.0 °F 97% 30.10 in 2.0 mi Calm Calm - N/A   Overcast
8:45 AM 39.9 °F - 39.9 °F 100% 30.10 in 3.0 mi Calm Calm - N/A   Overcast
8:53 AM 39.9 °F - 39.0 °F 97% 30.12 in 4.0 mi Calm Calm - N/A   Overcast
9:27 AM 39.9 °F - 39.9 °F 100% 30.10 in 2.0 mi Calm Calm - N/A   Overcast
9:42 AM 39.9 °F - 39.0 °F 97% 30.09 in 3.0 mi Calm Calm - N/A   Overcast
9:53 AM 41.0 °F 38.0 °F 39.9 °F 96% 30.11 in 2.0 mi NE 4.6 mph - N/A   Overcast
10:00 AM 41.0 °F 39.0 °F 39.0 °F 93% 30.09 in 7.0 mi NNE 3.5 mph - N/A   Overcast
10:45 AM 45.0 °F 43.5 °F 41.0 °F 86% 30.09 in 10.0 mi NE 3.5 mph - N/A   Scattered Clouds
10:53 AM 46.0 °F - 41.0 °F 83% 30.10 in 10.0 mi Calm Calm - N/A   Scattered Clouds
11:53 AM 54.0 °F - 42.1 °F 64% 30.06 in 10.0 mi SE 8.1 mph - N/A   Clear
12:53 PM 57.0 °F - 39.9 °F 53% 30.04 in 10.0 mi SE 6.9 mph - N/A   Clear
1:53 PM 61.0 °F - 39.0 °F 44% 30.02 in 10.0 mi SSE 5.8 mph - N/A   Clear
2:53 PM 63.0 °F - 39.0 °F 41% 29.97 in 10.0 mi SSE 10.4 mph - N/A   Clear
3:53 PM 64.0 °F - 35.1 °F 34% 29.95 in 10.0 mi South 11.5 mph - N/A   Clear
4:53 PM 63.0 °F - 33.1 °F 33% 29.95 in 10.0 mi SSE 9.2 mph - N/A   Clear
5:53 PM 60.1 °F - 32.0 °F 35% 29.95 in 10.0 mi South 4.6 mph - N/A   Clear
6:53 PM 57.0 °F - 32.0 °F 39% 29.96 in 10.0 mi SW 4.6 mph - N/A   Clear
7:53 PM 48.0 °F - 36.0 °F 63% 29.98 in 10.0 mi SSE 4.6 mph - N/A   Clear
8:53 PM 48.0 °F - 36.0 °F 63% 29.99 in 10.0 mi Calm Calm - N/A   Clear
9:53 PM 42.1 °F - 36.0 °F 79% 29.97 in 10.0 mi Calm Calm - N/A   Clear
10:53 PM 39.0 °F 36.8 °F 35.1 °F 86% 29.97 in 10.0 mi NE 3.5 mph - N/A   Clear
11:53 PM 39.9 °F - 36.0 °F 86% 29.96 in 10.0 mi Calm Calm - N/A   Clear